Tracking 19245 objects as of 18-Aug-2018
HD Live streaming from Space Station
objects crossing your sky now

TRANSIT 4B

Track TRANSIT 4B now!
10-day predictions
TRANSIT 4B is classified as:


NORAD ID: 202
Int'l Code: 1961-031A
Perigee: 955.2 km
Apogee: 1,104.9 km
Inclination: 32.4 °
Period: 105.6 minutes
Semi major axis: 7401 km
RCS: 2.1391 m2 (large)
Launch date: November 15, 1961
Source: United States (US)
Launch site: AIR FORCE EASTERN TEST RANGE (AFETR)
aabbcc
Your satellite tracking list
Your tracking list is empty




NASA's NSSDC Master Catalog

Two Line Element Set (TLE):
1 00202U 61031A   18230.21799157  .00000022  00000-0  16838-5 0  9995
2 00202  32.4371 283.1480 0101164  96.1726 265.0431 13.63517677830486
Source of the keplerian elements: AFSPC